CZ-6A DEB, 64662

Orbit data source: Space-Track

CZ-6A DEB, 64662 is space debris in LEO originally from a launch on Tue, 06 Aug 2024 UTC launched from the Taiyaun Space Center, China (TSC). Debris objects in space refer to the collection of defunct objects orbiting the Earth. Examples of debris include non-operational satellites, rocket bodies, and fragments generated from explosions, collisions, or faulty payload assembly.

Loading next visibility...
Identifier
64662, 2024-140AFC
Orbit
LEO
Country
Flag of CNCN / PRC
Related business
Manufacturer
SAST
Mission
Spacecraft
Bus & Motor
Unknown
Mass
Unknown
Launch date (UTC)
2024-08-06 (1 year ago)
Launch vehicle
Unknown
Launch site
Taiyaun Space Center, China (TSC)
Object type
Payload
Rocket body
Debris
Shape & HBR
Unknown shape, 0.1 m
Radar Cross Section
Small (<0.1 m²)

Expand to show TLE details & history
Last TLE update: 1 day ago

TLE from 1 day ago
0 CZ-6A DEB
1 64662U 24140AFC 25312.71587992  .00000665  00000-0  30389-3 0  9999
2 64662  88.9973 299.6280 0046555 203.0452 156.8651 14.19813371 53173
Epoch: 2025-11-08T17:10Z
TLE epoch observation values (Epoch: 2025-11-08T17:10:52.025Z)
Latitude
0.00004°
Longitude
-6.23028°
Altitude
859.909 km
Speed
7.407 km/s
True Right ascension
19h 58m 30s
True Declination
0° 00' 00"
Sunlit
Object was in daylight at epoch
Visualization orbit readout
Latitude
Unknown
Longitude
Unknown
Altitude
Unknown
Speed
Unknown
Apparent Right ascension
Unknown
Apparent Declination
Unknown
Sunlit
N/A
Visualization observer readout
Local Sidereal Time
15:56:06
Azimuth
Unknown
Elevation
Unknown
Doppler factor
Unknown
Orbital elements
Apogee altitude
856.46 km
Perigee altitude
789.411 km
Semi-major axis
7,201.072 km
Eccentricity
0.00466
Inclination
88.9973°
RAAN
299.628°
Arg. of periapsis
203.0452°
True anomaly
157.07359°
Mean anomaly
156.8651°
Eccentric anomaly
156.96945°
Mean motion
3.55179 °/min
Orbital period
101.36 mins
BSTAR
0.00030389
Loading maneuver chart data...
Computing Atmospheric mass density...

Documentation

Showing up to 5 results
|